Time,TemperatureF,DewpointF,PressureIn,WindDirection,WindDirectionDegrees,WindSpeedMPH,WindSpeedGustMPH,Humidity,HourlyPrecipIn,Conditions,Clouds,dailyrainin,SolarRadiationWatts/m^2,SoftwareType,DateUTC
2013-02-17 00:11:00,31.0,26.0,-100.00,ESE,122,3.0,5.0,83,-99.99,,,-99.99,0.120000,,2013-02-17 08:11:00,
2013-02-17 01:11:00,28.0,24.0,-100.00,WSW,243,3.0,6.0,82,-99.99,,,-99.99,0.120000,,2013-02-17 09:11:00,
2013-02-17 02:11:00,28.0,23.0,-100.00,SE,128,5.0,6.0,82,-99.99,,,0.00,0.120000,,2013-02-17 10:11:00,
2013-02-17 03:11:00,27.0,22.0,-100.00,WSW,247,3.0,6.0,82,-99.99,,,0.00,0.120000,,2013-02-17 11:11:00,
2013-02-17 04:11:00,29.0,22.0,-100.00,WNW,288,6.0,9.0,72,-99.99,,,0.00,0.120000,,2013-02-17 12:11:00,
2013-02-17 05:12:00,27.0,21.0,-100.00,SSE,152,5.0,7.0,79,-99.99,,,0.00,0.000000,,2013-02-17 13:12:00,
2013-02-17 06:11:00,29.0,22.0,-100.00,ESE,118,3.0,4.0,74,-99.99,,,-99.99,0.000000,,2013-02-17 14:11:00,
2013-02-17 07:11:00,31.0,23.0,-100.00,NNE,13,3.0,5.0,69,-99.99,,,-99.99,0.000000,,2013-02-17 15:11:00,
2013-02-17 08:11:00,30.0,22.0,-100.00,East,87,3.0,5.0,72,-99.99,,,0.00,9.530000,,2013-02-17 16:11:00,
2013-02-17 09:11:00,31.0,24.0,-100.00,SE,127,4.0,7.0,75,-99.99,,,0.00,173.869995,,2013-02-17 17:11:00,
2013-02-17 10:11:00,34.0,24.0,-100.00,South,186,2.0,4.0,64,-99.99,,,0.00,339.709991,,2013-02-17 18:11:00,
2013-02-17 12:11:00,38.0,23.0,-100.00,West,264,4.0,8.0,53,-99.99,,,0.00,578.890015,,2013-02-17 20:11:00,
2013-02-17 13:11:00,41.0,23.0,-100.00,NW,312,4.0,8.0,50,-99.99,,,0.00,611.780029,,2013-02-17 21:11:00,
2013-02-17 14:12:00,42.0,23.0,-100.00,NNW,328,5.0,9.0,47,-99.99,,,0.00,589.929993,,2013-02-17 22:12:00,
2013-02-17 15:11:00,43.0,23.0,-100.00,NNW,341,4.0,7.0,43,-99.99,,,0.00,511.600006,,2013-02-17 23:11:00,
2013-02-17 16:11:00,44.0,23.0,-100.00,North,358,5.0,10.0,43,-99.99,,,0.00,394.450012,,2013-02-18 00:11:00,
2013-02-17 17:11:00,42.0,24.0,-100.00,North,357,10.0,14.0,49,-99.99,,,0.00,129.929993,,2013-02-18 01:11:00,
2013-02-17 18:11:00,38.0,24.0,-100.00,North,354,9.0,13.0,56,-99.99,,,0.00,38.930000,,2013-02-18 02:11:00,
2013-02-17 19:11:00,32.0,23.0,-100.00,NNW,346,3.0,4.0,69,-99.99,,,0.00,0.000000,,2013-02-18 03:11:00,
2013-02-17 20:11:00,30.0,23.0,-100.00,ESE,102,1.0,1.0,73,-99.99,,,0.00,0.120000,,2013-02-18 04:11:00,
2013-02-17 21:11:00,32.0,23.0,-100.00,North,1,1.0,2.0,70,-99.99,,,0.00,0.120000,,2013-02-18 05:11:00,
2013-02-17 22:11:00,28.0,21.0,-100.00,SSE,156,3.0,4.0,75,-99.99,,,-99.99,0.120000,,2013-02-18 06:11:00,
2013-02-17 23:11:00,27.0,21.0,-100.00,SSE,150,4.0,5.0,80,-99.99,,,0.00,0.120000,,2013-02-18 07:11:00,